Regional Weather Roundup
Issued by NWS

Home | Current Version | Previous Version | Text Only | Print | Product List | Glossary Off
Versions: 1 2 3 4 5 6 7 8 9 10 11 12 13 14 15 16 17 18 19 20 21 22 23 24 25 26 27 28 29 30 31 32 33 34 35 36 37 38 39 40 41 42 43 44 45 46 47 48 49 50

000
ASUS43 KMKX 210621
RWRWI

WISCONSIN REGIONAL WEATHER ROUNDUP
NATIONAL WEATHER SERVICE MILWAUKEE/SULLIVAN WI
100 AM CDT FRI JUL 21 2017

NOTE: "FAIR" INDICATES FEW OR NO CLOUDS BELOW 12,000 FEET WITH NO
SIGNIFICANT WEATHER AND/OR OBSTRUCTIONS TO VISIBILITY.

WIZ001-002-006>008-014>016-023>028-210700-
NORTHWEST WISCONSIN

CITY           SKY/WX    TMP DP  RH WIND       PRES   REMARKS
SUPERIOR ARPT  NOT AVBL
ASHLAND        CLEAR     64  61  90 SW6       29.97S
6HR MIN TEMP:  63; 6HR MAX TEMP:  81;

HAYWARD        PTCLDY    61  59  93 CALM      29.99F
6HR MIN TEMP:  60; 6HR MAX TEMP:  82;

SIREN          PTCLDY    64  63  94 CALM      29.98S
6HR MIN TEMP:  64; 6HR MAX TEMP:  83;

CUMBERLAND     FOG       61  61 100 CALM      30.00R VSB 1
RICE LAKE        N/A     62  62  97 N6        30.00S FOG
6HR MIN TEMP:  62; 6HR MAX TEMP:  82;

CHETEK         CLEAR     64  64 100 CALM      29.99S
6HR MIN TEMP:  63; 6HR MAX TEMP:  82;

LADYSMITH      CLEAR     64  62  94 CALM      30.01S
6HR MIN TEMP:  64; 6HR MAX TEMP:  82;

EAU CLAIRE     MOCLDY    65  64  97 CALM      29.97R FOG
6HR MIN TEMP:  63; 6HR MAX TEMP:  83;

MENOMONIE      FOG       67  66  99 CALM      29.97F VSB 3/4
6HR MIN TEMP:  66; 6HR MAX TEMP:  82;

NEW RICHMOND     N/A     64  64  98 CALM      29.98R
6HR MIN TEMP:  64; 6HR MAX TEMP:  83;

OSCEOLA        PTCLDY    65  65 100 CALM      29.99F
6HR MIN TEMP:  64; 6HR MAX TEMP:  83;

$$

WIZ003>005-009-010-017-018-210700-
NORTH CENTRAL WISCONSIN

CITY           SKY/WX    TMP DP  RH WIND       PRES   REMARKS
MANITOWISH WTR FOG       58  58 100 CALM      30.01S VSB 1
6HR MIN TEMP:  58; 6HR MAX TEMP:  78;

ARBOR VITAE    CLEAR     62  60  94 CALM      30.00F
6HR MIN TEMP:  60; 6HR MAX TEMP:  80;

WOODRUFF       CLEAR     62  60  94 CALM      30.00F
6HR MIN TEMP:  60; 6HR MAX TEMP:  80;

RHINELANDER    FOG       59  59 100 CALM      30.02S VSB 1/4
6HR MIN TEMP:  59; 6HR MAX TEMP:  82;

EAGLE RIVER    FOG       58  58 100 CALM      30.01F VSB 1/2
6HR MIN TEMP:  58; 6HR MAX TEMP:  78;

LAND O LAKES   CLEAR     57  57 100 CALM      30.02F FOG
6HR MIN TEMP:  57; 6HR MAX TEMP:  79;

PHILLIPS       PTCLDY    61  61 100 CALM      30.00S
6HR MIN TEMP:  60; 6HR MAX TEMP:  81;

TOMAHAWK         N/A     57  56  95 CALM      30.02S FOG
6HR MIN TEMP:  57; 6HR MAX TEMP:  80;

MEDFORD        CLEAR     64  63  97 CALM      30.00F
6HR MIN TEMP:  62; 6HR MAX TEMP:  80;

MERRILL        CLEAR     59  59 100 CALM      30.00F
6HR MIN TEMP:  60; 6HR MAX TEMP:  82;

$$

WIZ029-030-035-036-043>047-210700-
CENTRAL WISCONSIN

CITY           SKY/WX    TMP DP  RH WIND       PRES   REMARKS
WAUSAU         CLEAR     69  65  86 NW3       29.97F
6HR MIN TEMP:  69; 6HR MAX TEMP:  83;

MOSINEE        CLEAR     64  64 100 N3        30.00S
MARSHFIELD     CLEAR     67  62  84 N5        29.98F
6HR MIN TEMP:  65; 6HR MAX TEMP:  81;

STEVENS POINT  CLEAR     61  61 100 CALM      29.99F
6HR MIN TEMP:  61; 6HR MAX TEMP:  80;

WAUPACA        CLEAR     68  66  96 CALM      29.97F
6HR MIN TEMP:  67; 6HR MAX TEMP:  85;

WAUTOMA        CLEAR     66  65  96 CALM      30.00R
6HR MIN TEMP:  66; 6HR MAX TEMP:  80;

WISC RAPIDS    CLEAR     64  63  96 SW5       30.00R FOG
6HR MIN TEMP:  64; 6HR MAX TEMP:  83;

CAMP DOUGLAS   FOG       63  63 100 CALM      29.99S VSB 1/2
6HR MIN TEMP:  62; 6HR MAX TEMP:  77;

$$

WIZ011>013-019>022-031-037>040-048>050-210700-
NORTHEAST WISCONSIN

CITY           SKY/WX    TMP DP  RH WIND       PRES   REMARKS
ANTIGO         CLEAR     61  59  94 CALM      30.02R
6HR MIN TEMP:  61; 6HR MAX TEMP:  80;

SHAWANO        CLEAR     66  63  91 CALM      29.97S
6HR MIN TEMP:  66; 6HR MAX TEMP:  87;

OCONTO         CLEAR     63  63  98 CALM      29.97R
6HR MIN TEMP:  63; 6HR MAX TEMP:  84;

STURGEON BAY     N/A     70  66  87 NE5       29.97R
6HR MIN TEMP:  69; 6HR MAX TEMP:  83;

GREEN BAY      CLEAR     68  68 100 NW6       29.96R
6HR MIN TEMP:  67; 6HR MAX TEMP:  85;

MANITOWOC      CLEAR     68  66  93 CALM      29.95F
6HR MIN TEMP:  68; 6HR MAX TEMP:  76; 6HR PCP: TRACE;

APPLETON       CLEAR     68  61  77 W8        29.96S
CLINTONVILLE   CLEAR     64  63  94 CALM      29.98R
OSHKOSH        CLEAR     69  65  86 CALM      29.96S
6HR MIN TEMP:  68; 6HR MAX TEMP:  81;

$$

WIZ032>034-041-042-053>061-210700-
SOUTHWEST WISCONSIN

CITY           SKY/WX    TMP DP  RH WIND       PRES   REMARKS
LA CROSSE      CLOUDY    74  71  91 S7        29.98R
6HR MIN TEMP:  72; 6HR MAX TEMP:  86;

SPARTA         FOG       61  61 100 CALM      30.00R VSB 1
6HR MIN TEMP:  61; 6HR MAX TEMP:  80;

VIROQUA        CLOUDY    71  70  98 SE7       30.02S
6HR MIN TEMP:  67; 6HR MAX TEMP:  79;

BOSCOBEL       FOG       71  70  96 CALM      30.01R VSB 1/4
6HR MIN TEMP:  69; 6HR MAX TEMP:  84;

PRAIRIE DU CHI FOG       70  69  96 CALM      29.99S VSB 1/2
6HR MIN TEMP:  70; 6HR MAX TEMP:  84;

PLATTEVILLE    CLOUDY    74  73  97 NE3       30.02S
6HR MIN TEMP:  73; 6HR MAX TEMP:  83;

$$

WIZ056-057-062-063-064-067-068-210700-
SOUTH CENTRAL WISCONSIN

CITY           SKY/WX    TMP DP  RH WIND       PRES   REMARKS
REEDSBURG      CLEAR     67  67 100 CALM      30.00R
6HR MIN TEMP:  66; 6HR MAX TEMP:  80;

BARABOO/DELLS  PTCLDY    66  65  95 CALM      30.01R FOG
6HR MIN TEMP:  66; 6HR MAX TEMP:  81;

LONE ROCK      FOG       68  67  96 CALM      30.01R VSB 1/4
6HR MIN TEMP:  67; 6HR MAX TEMP:  83;

MINERAL POINT  CLOUDY    73  72  94 CALM      30.02S
MADISON        CLOUDY    69  67  93 CALM      30.00R
6HR MIN TEMP:  68; 6HR MAX TEMP:  84;

MIDDLETON      CLOUDY    67  67 100 CALM      30.01S
6HR MIN TEMP:  67; 6HR MAX TEMP:  83;

WATERTOWN      CLEAR     68  68 100 CALM      29.99R
6HR MIN TEMP:  68; 6HR MAX TEMP:  82; 6HR PCP:  0.01;

MONROE         CLOUDY    73  70  88 N3        30.00S
JANESVILLE     CLOUDY    72  72 100 CALM      29.99S
$$

WIZ051-052-058>065-066-070>072-210700-
SOUTHEAST WISCONSIN

CITY           SKY/WX    TMP DP  RH WIND       PRES   REMARKS
MILWAUKEE      PTCLDY    75  70  84 CALM      29.97S
6HR MIN TEMP:  74; 6HR MAX TEMP:  79;

WAUKESHA       CLEAR     68  68 100 CALM      30.00S
MILWAUKEE/TIMM CLEAR     70  66  88 CALM      29.99R
RACINE         CLEAR     71  69  93 CALM      29.99S
6HR MIN TEMP:  70; 6HR MAX TEMP:  77;

KENOSHA        CLEAR     68  67  96 W3        29.98S
6HR MIN TEMP:  68; 6HR MAX TEMP:  78;

FOND DU LAC    CLEAR     70  66  87 CALM      29.98R
6HR MIN TEMP:  69; 6HR MAX TEMP:  81; 6HR PCP: TRACE;

SHEBOYGAN      CLEAR     66  66 100 CALM      29.97S FOG
6HR MIN TEMP:  65; 6HR MAX TEMP:  81;

WEST BEND      CLEAR     68  68 100 CALM      29.99R
JUNEAU         CLEAR     67  66  97 CALM      30.01R
6HR MIN TEMP:  67; 6HR MAX TEMP:  80;

$$

LSZ147-162-210700-
LAKE SUPERIOR

STATION/POSITION TIME  TEMP    WIND        PRES    WAVE
                       AIR SEA DIR/SP/G            HT/PER
                 (UTC) (F)     (DEG/KT/KT) (MB)    (FT/S)
W MID LAKE BUOY  0550   58 48  300/  4/  4 1014.0S   0
DEVILS ISLAND    0600   71     250/  6/  7 1014.1R
PORT WING        0500   66     150/  2/  3 1014.6
SAXON HARBOR     0540   66     200/  4/  5 1013.9F
$$

LMZ867-665-643>646-210700-
LAKE MICHIGAN

STATION/POSITION TIME  TEMP    WIND        PRES    WAVE
                       AIR SEA DIR/SP/G            HT/PER
                 (UTC) (F)     (DEG/KT/KT) (MB)    (FT/S)
CHAMBERS ISLAND  0540   72      10/  6/  8 1013.5S
S GREEN



USA.gov is the U.S. government's official web portal to all federal, state and local government web resources and services.